| time (UTC) | temp C | wind direction | speed KPH | gust KPH | rain 1hr cm | rain 24hr cm | rain mn cm | humidity % | barometer mb |
| 20260504160303 | 16 | 292 | 3.2 | 3.2 | 0.00 | 0.00 | 0.00 | 47 | 1034.2 |
| 20260504150728 | 15 | 291 | 3.2 | 4.8 | 0.00 | 0.00 | 0.00 | 48 | 1034.3 |
| 20260504150225 | 16 | 304 | 1.6 | 1.6 | 0.00 | 0.00 | 0.00 | 44 | 1034.1 |
| 20260504141154 | 15 | 194 | 3.2 | 4.8 | 0.00 | 0.00 | 0.00 | 48 | 1034.1 |
| 20260504140651 | 14 | 184 | 3.2 | 4.8 | 0.00 | 0.00 | 0.00 | 49 | 1034.2 |
| 20260504140146 | 13 | 186 | 3.2 | 3.2 | 0.00 | 0.00 | 0.00 | 49 | 1034.2 |
| 20260504130615 | 12 | 287 | 1.6 | 1.6 | 0.00 | 0.00 | 0.00 | 52 | 1034.7 |
| 20260504130112 | 12 | 82 | 4.8 | 4.8 | 0.00 | 0.00 | 0.00 | 52 | 1034.8 |
| 20260504110503 | 6 | 322 | 0.0 | 0.0 | 0.00 | 0.00 | 0.00 | 82 | 1034.9 |
| 20260504100419 | 5 | 347 | 0.0 | 0.0 | 0.00 | 0.00 | 0.00 | 87 | 1035.1 |
| 20260504081812 | 3 | 321 | 0.0 | 0.0 | 0.00 | 0.00 | 0.00 | 90 | 1034.9 |
| 20260504081309 | 3 | 322 | 0.0 | 0.0 | 0.00 | 0.00 | 0.00 | 90 | 1034.9 |
| 20260504080805 | 2 | 323 | 0.0 | 0.0 | 0.00 | 0.00 | 0.00 | 90 | 1035.2 |
| 20260504080301 | 2 | 342 | 0.0 | 0.0 | 0.00 | 0.00 | 0.00 | 90 | 1035.1 |
| 20260504070229 | 3 | 334 | 0.0 | 0.0 | 0.00 | 0.00 | 0.00 | 89 | 1035.1 |
| 20260504060149 | 2 | 354 | 0.0 | 0.0 | 0.00 | 0.00 | 0.00 | 83 | 1034.8 |
| 20260504050618 | 1 | 349 | 0.0 | 0.0 | 0.00 | 0.00 | 0.00 | 86 | 1034.8 |
| 20260504050115 | 1 | 0 | 0.0 | 1.6 | 0.00 | 0.00 | 0.00 | 86 | 1034.8 |
| 20260504045612 | 1 | 9 | 1.6 | 1.6 | 0.00 | 0.00 | 0.00 | 87 | 1034.8 |
| 20260504045106 | 1 | 349 | 0.0 | 0.0 | 0.00 | 0.00 | 0.00 | 87 | 1034.9 |
| 20260504044604 | 1 | 1 | 1.6 | 1.6 | 0.00 | 0.00 | 0.00 | 86 | 1034.9 |
| 20260504044101 | 1 | 9 | 1.6 | 1.6 | 0.00 | 0.00 | 0.00 | 86 | 1035.0 |
| 20260504043558 | 1 | 326 | 0.0 | 0.0 | 0.00 | 0.00 | 0.00 | 85 | 1035.0 |
| 20260504043055 | 1 | 326 | 0.0 | 0.0 | 0.00 | 0.00 | 0.00 | 85 | 1034.9 |
| 20260504042552 | 1 | 326 | 0.0 | 0.0 | 0.00 | 0.00 | 0.00 | 85 | 1035.0 |
| 20260504042049 | 1 | 326 | 0.0 | 0.0 | 0.00 | 0.00 | 0.00 | 85 | 1034.9 |
| 20260504041545 | 1 | 326 | 0.0 | 0.0 | 0.00 | 0.00 | 0.00 | 84 | 1035.1 |
| 20260504041041 | 1 | 326 | 0.0 | 0.0 | 0.00 | 0.00 | 0.00 | 84 | 1035.1 |
| 20260504040539 | 1 | 326 | 0.0 | 0.0 | 0.00 | 0.00 | 0.00 | 83 | 1035.0 |
| 20260504040035 | 1 | 326 | 0.0 | 0.0 | 0.00 | 0.00 | 0.00 | 83 | 1035.1 |
| 20260504035532 | 1 | 326 | 0.0 | 0.0 | 0.00 | 0.00 | 0.00 | 82 | 1035.1 |
| 20260504035028 | 1 | 326 | 0.0 | 0.0 | 0.00 | 0.00 | 0.00 | 81 | 1035.1 |
| 20260504034526 | 1 | 326 | 0.0 | 0.0 | 0.00 | 0.00 | 0.00 | 81 | 1035.0 |
| 20260504034023 | 1 | 326 | 0.0 | 0.0 | 0.00 | 0.00 | 0.00 | 81 | 1035.2 |
| 20260504033521 | 1 | 325 | 0.0 | 0.0 | 0.00 | 0.00 | 0.00 | 81 | 1035.4 |
| 20260504033018 | 1 | 325 | 0.0 | 0.0 | 0.00 | 0.00 | 0.00 | 82 | 1035.2 |
| 20260504032515 | 1 | 326 | 0.0 | 0.0 | 0.00 | 0.00 | 0.00 | 82 | 1035.4 |
| 20260504032012 | 1 | 326 | 0.0 | 0.0 | 0.00 | 0.00 | 0.00 | 81 | 1035.5 |
| 20260504031509 | 1 | 324 | 0.0 | 0.0 | 0.00 | 0.00 | 0.00 | 82 | 1035.5 |
| 20260504031005 | 1 | 326 | 0.0 | 0.0 | 0.00 | 0.00 | 0.00 | 81 | 1035.5 |
| 20260504030503 | 2 | 327 | 0.0 | 0.0 | 0.00 | 0.00 | 0.00 | 80 | 1035.3 |
| 20260504025958 | 2 | 326 | 0.0 | 0.0 | 0.00 | 0.00 | 0.00 | 79 | 1035.5 |
| 20260504025455 | 2 | 326 | 0.0 | 0.0 | 0.00 | 0.00 | 0.00 | 79 | 1035.4 |
| 20260504024952 | 2 | 326 | 0.0 | 0.0 | 0.00 | 0.00 | 0.00 | 79 | 1035.7 |
| 20260504024449 | 2 | 326 | 0.0 | 0.0 | 0.00 | 0.00 | 0.00 | 77 | 1035.6 |
| 20260504023946 | 2 | 327 | 0.0 | 0.0 | 0.00 | 0.00 | 0.00 | 78 | 1035.7 |
| 20260504023443 | 2 | 327 | 0.0 | 0.0 | 0.00 | 0.00 | 0.00 | 78 | 1035.6 |
| 20260504022938 | 2 | 328 | 0.0 | 0.0 | 0.00 | 0.00 | 0.00 | 77 | 1036.0 |
| 20260504022435 | 2 | 328 | 0.0 | 0.0 | 0.00 | 0.00 | 0.00 | 77 | 1035.8 |
| 20260504021932 | 2 | 328 | 0.0 | 0.0 | 0.00 | 0.00 | 0.00 | 77 | 1035.8 |
| 20260504021429 | 2 | 329 | 0.0 | 0.0 | 0.00 | 0.00 | 0.00 | 77 | 1036.2 |
| 20260504020926 | 2 | 330 | 0.0 | 0.0 | 0.00 | 0.00 | 0.00 | 77 | 1036.0 |
| 20260504020423 | 3 | 330 | 0.0 | 0.0 | 0.00 | 0.00 | 0.00 | 76 | 1036.0 |
| 20260504015919 | 3 | 330 | 0.0 | 0.0 | 0.00 | 0.00 | 0.00 | 76 | 1035.8 |
| 20260504015415 | 3 | 329 | 0.0 | 0.0 | 0.00 | 0.00 | 0.00 | 75 | 1036.1 |
| 20260504014912 | 3 | 329 | 0.0 | 0.0 | 0.00 | 0.00 | 0.00 | 75 | 1036.0 |
| 20260504014408 | 3 | 329 | 0.0 | 0.0 | 0.00 | 0.00 | 0.00 | 74 | 1035.8 |
| 20260504013904 | 3 | 329 | 0.0 | 0.0 | 0.00 | 0.00 | 0.00 | 73 | 1035.7 |
| 20260504013403 | 3 | 330 | 0.0 | 0.0 | 0.00 | 0.00 | 0.00 | 72 | 1035.6 |
| 20260504012859 | 3 | 329 | 0.0 | 0.0 | 0.00 | 0.00 | 0.00 | 71 | 1035.6 |
| 20260504012357 | 3 | 329 | 0.0 | 0.0 | 0.00 | 0.00 | 0.00 | 70 | 1035.8 |
| 20260504011854 | 3 | 329 | 0.0 | 0.0 | 0.00 | 0.00 | 0.00 | 70 | 1035.8 |
| 20260504011351 | 4 | 329 | 0.0 | 0.0 | 0.00 | 0.00 | 0.00 | 71 | 1035.7 |
| 20260504010847 | 4 | 329 | 0.0 | 0.0 | 0.00 | 0.00 | 0.00 | 71 | 1035.6 |
| 20260504010342 | 5 | 329 | 0.0 | 0.0 | 0.00 | 0.00 | 0.00 | 70 | 1035.5 |
| 20260504005839 | 5 | 335 | 0.0 | 0.0 | 0.00 | 0.00 | 0.00 | 66 | 1035.3 |
| 20260504005336 | 5 | 335 | 0.0 | 0.0 | 0.00 | 0.00 | 0.00 | 64 | 1035.2 |
| 20260504004833 | 5 | 335 | 0.0 | 0.0 | 0.00 | 0.00 | 0.00 | 65 | 1035.3 |
| 20260504004331 | 5 | 335 | 0.0 | 0.0 | 0.00 | 0.00 | 0.00 | 64 | 1035.2 |
| 20260504003827 | 5 | 335 | 0.0 | 0.0 | 0.00 | 0.00 | 0.00 | 65 | 1035.1 |
| 20260504003324 | 5 | 335 | 0.0 | 0.0 | 0.00 | 0.00 | 0.00 | 65 | 1035.2 |
| 20260504002821 | 5 | 335 | 0.0 | 0.0 | 0.00 | 0.00 | 0.00 | 65 | 1035.3 |
| 20260504002318 | 5 | 335 | 0.0 | 0.0 | 0.00 | 0.00 | 0.00 | 64 | 1035.1 |
| 20260504001816 | 6 | 339 | 0.0 | 0.0 | 0.00 | 0.00 | 0.00 | 61 | 1035.2 |
| 20260504001313 | 6 | 340 | 0.0 | 0.0 | 0.00 | 0.00 | 0.00 | 59 | 1035.0 |
| 20260504000809 | 6 | 340 | 0.0 | 0.0 | 0.00 | 0.00 | 0.00 | 57 | 1035.0 |
| 20260504000306 | 6 | 340 | 0.0 | 0.0 | 0.00 | 0.00 | 0.00 | 58 | 1035.0 |
| 20260503235804 | 7 | 340 | 0.0 | 0.0 | 0.00 | 0.00 | 0.00 | 58 | 1035.2 |
| 20260503235302 | 7 | 340 | 0.0 | 0.0 | 0.00 | 0.00 | 0.00 | 56 | 1035.2 |
| 20260503234759 | 7 | 340 | 0.0 | 0.0 | 0.00 | 0.00 | 0.00 | 54 | 1035.1 |
| 20260503234257 | 7 | 340 | 0.0 | 0.0 | 0.00 | 0.00 | 0.00 | 54 | 1035.0 |
| 20260503233754 | 8 | 340 | 0.0 | 0.0 | 0.00 | 0.00 | 0.00 | 53 | 1035.0 |
| 20260503233249 | 8 | 341 | 0.0 | 0.0 | 0.00 | 0.00 | 0.00 | 52 | 1034.9 |
| 20260503232747 | 8 | 355 | 0.0 | 0.0 | 0.00 | 0.00 | 0.00 | 51 | 1034.9 |
| 20260503232244 | 8 | 347 | 0.0 | 0.0 | 0.00 | 0.00 | 0.00 | 51 | 1034.9 |
| 20260503231742 | 8 | 343 | 0.0 | 0.0 | 0.00 | 0.00 | 0.00 | 52 | 1034.9 |
| 20260503231239 | 8 | 12 | 0.0 | 1.6 | 0.00 | 0.00 | 0.00 | 47 | 1035.0 |
| 20260503230734 | 8 | 319 | 4.8 | 4.8 | 0.00 | 0.00 | 0.00 | 46 | 1034.8 |
| 20260503230232 | 9 | 324 | 0.0 | 1.6 | 0.00 | 0.00 | 0.00 | 46 | 1034.8 |
| 20260503225729 | 9 | 311 | 1.6 | 1.6 | 0.00 | 0.00 | 0.00 | 45 | 1035.0 |
| 20260503225229 | 9 | 329 | 0.0 | 1.6 | 0.00 | 0.00 | 0.00 | 45 | 1034.9 |
| 20260503224727 | 9 | 294 | 1.6 | 3.2 | 0.00 | 0.00 | 0.00 | 47 | 1035.1 |
| 20260503224224 | 9 | 317 | 0.0 | 1.6 | 0.00 | 0.00 | 0.00 | 47 | 1034.8 |
| 20260503223722 | 9 | 321 | 0.0 | 1.6 | 0.00 | 0.00 | 0.00 | 45 | 1035.1 |
| 20260503223219 | 10 | 340 | 0.0 | 0.0 | 0.00 | 0.00 | 0.00 | 46 | 1035.0 |
| 20260503222715 | 10 | 323 | 0.0 | 1.6 | 0.00 | 0.00 | 0.00 | 45 | 1034.9 |
| 20260503222213 | 10 | 307 | 3.2 | 3.2 | 0.00 | 0.00 | 0.00 | 44 | 1034.9 |
| 20260503221712 | 10 | 349 | 1.6 | 3.2 | 0.00 | 0.00 | 0.00 | 47 | 1034.9 |
| 20260503221209 | 9 | 319 | 0.0 | 1.6 | 0.00 | 0.00 | 0.00 | 49 | 1035.0 |
| 20260503220705 | 9 | 342 | 1.6 | 3.2 | 0.00 | 0.00 | 0.00 | 48 | 1034.9 |
| 20260503220202 | 9 | 325 | 0.0 | 0.0 | 0.00 | 0.00 | 0.00 | 49 | 1034.8 |
| 20260503215659 | 9 | 319 | 1.6 | 1.6 | 0.00 | 0.00 | 0.00 | 47 | 1035.1 |
| 20260503215155 | 9 | 322 | 0.0 | 0.0 | 0.00 | 0.00 | 0.00 | 49 | 1034.9 |
| 20260503214654 | 9 | 344 | 0.0 | 0.0 | 0.00 | 0.00 | 0.00 | 49 | 1034.8 |
| 20260503214149 | 9 | 325 | 1.6 | 3.2 | 0.00 | 0.00 | 0.00 | 48 | 1034.7 |
| 20260503213643 | 9 | 308 | 1.6 | 3.2 | 0.00 | 0.00 | 0.00 | 48 | 1035.0 |
| 20260503213140 | 10 | 326 | 0.0 | 0.0 | 0.00 | 0.00 | 0.00 | 46 | 1034.9 |
| 20260503212637 | 10 | 118 | 0.0 | 3.2 | 0.00 | 0.00 | 0.00 | 46 | 1034.8 |
| 20260503212134 | 10 | 315 | 1.6 | 1.6 | 0.00 | 0.00 | 0.00 | 44 | 1034.9 |
| 20260503211632 | 10 | 301 | 3.2 | 3.2 | 0.00 | 0.00 | 0.00 | 46 | 1034.7 |
| 20260503211127 | 10 | 325 | 0.0 | 1.6 | 0.00 | 0.00 | 0.00 | 47 | 1034.9 |
| 20260503210624 | 9 | 308 | 1.6 | 1.6 | 0.00 | 0.00 | 0.00 | 47 | 1034.9 |
| 20260503210121 | 8 | 329 | 0.0 | 1.6 | 0.00 | 0.00 | 0.00 | 48 | 1034.9 |
| 20260503205616 | 9 | 293 | 1.6 | 3.2 | 0.00 | 0.00 | 0.00 | 49 | 1034.9 |
| 20260503205113 | 8 | 315 | 1.6 | 1.6 | 0.00 | 0.00 | 0.00 | 49 | 1034.8 |
| 20260503204610 | 8 | 336 | 1.6 | 1.6 | 0.00 | 0.00 | 0.00 | 47 | 1034.9 |
| 20260503204107 | 8 | 250 | 3.2 | 4.8 | 0.00 | 0.00 | 0.00 | 47 | 1034.7 |
| 20260503203604 | 9 | 300 | 1.6 | 3.2 | 0.00 | 0.00 | 0.00 | 46 | 1034.7 |
| 20260503203101 | 10 | 302 | 1.6 | 3.2 | 0.00 | 0.00 | 0.00 | 45 | 1034.6 |
| 20260503202559 | 10 | 353 | 0.0 | 1.6 | 0.00 | 0.00 | 0.00 | 46 | 1034.6 |
| 20260503202057 | 9 | 341 | 0.0 | 0.0 | 0.00 | 0.00 | 0.00 | 47 | 1034.7 |
| 20260503201555 | 8 | 321 | 0.0 | 1.6 | 0.00 | 0.00 | 0.00 | 47 | 1034.7 |
| 20260503201052 | 8 | 298 | 1.6 | 1.6 | 0.00 | 0.00 | 0.00 | 46 | 1034.6 |
| 20260503200548 | 9 | 295 | 1.6 | 3.2 | 0.00 | 0.00 | 0.00 | 44 | 1034.7 |
| 20260503200044 | 9 | 315 | 1.6 | 3.2 | 0.00 | 0.00 | 0.00 | 44 | 1034.5 |
| 20260503195542 | 10 | 312 | 3.2 | 4.8 | 0.00 | 0.00 | 0.00 | 41 | 1034.5 |
| 20260503195038 | 10 | 335 | 1.6 | 3.2 | 0.00 | 0.00 | 0.00 | 47 | 1034.7 |
| 20260503194536 | 10 | 310 | 1.6 | 3.2 | 0.00 | 0.00 | 0.00 | 45 | 1034.5 |
| 20260503194035 | 10 | 296 | 1.6 | 1.6 | 0.00 | 0.00 | 0.00 | 44 | 1034.6 |
| 20260503193532 | 10 | 359 | 0.0 | 0.0 | 0.00 | 0.00 | 0.00 | 43 | 1034.7 |
| 20260503193027 | 10 | 270 | 4.8 | 4.8 | 0.00 | 0.00 | 0.00 | 43 | 1034.6 |
| 20260503192524 | 9 | 284 | 4.8 | 4.8 | 0.00 | 0.00 | 0.00 | 43 | 1034.7 |
| 20260503192020 | 10 | 317 | 1.6 | 1.6 | 0.00 | 0.00 | 0.00 | 44 | 1034.5 |
| 20260503191517 | 10 | 314 | 1.6 | 1.6 | 0.00 | 0.00 | 0.00 | 43 | 1034.5 |
| 20260503191014 | 9 | 34 | 0.0 | 1.6 | 0.00 | 0.00 | 0.00 | 44 | 1034.4 |
| 20260503190511 | 9 | 298 | 1.6 | 3.2 | 0.00 | 0.00 | 0.00 | 43 | 1034.5 |
| 20260503190008 | 10 | 290 | 3.2 | 3.2 | 0.00 | 0.00 | 0.00 | 43 | 1034.7 |
| 20260503185504 | 10 | 280 | 3.2 | 3.2 | 0.00 | 0.00 | 0.00 | 43 | 1034.7 |
| 20260503185004 | 10 | 305 | 1.6 | 3.2 | 0.00 | 0.00 | 0.00 | 44 | 1034.2 |
| 20260503184500 | 10 | 284 | 3.2 | 4.8 | 0.00 | 0.00 | 0.00 | 40 | 1034.5 |
| 20260503183956 | 10 | 314 | 1.6 | 1.6 | 0.00 | 0.00 | 0.00 | 43 | 1034.5 |
| 20260503183453 | 9 | 323 | 0.0 | 1.6 | 0.00 | 0.00 | 0.00 | 43 | 1034.7 |
| 20260503182950 | 9 | 64 | 1.6 | 1.6 | 0.00 | 0.00 | 0.00 | 43 | 1034.6 |
| 20260503182449 | 9 | 315 | 1.6 | 3.2 | 0.00 | 0.00 | 0.00 | 43 | 1034.7 |
| 20260503181946 | 10 | 307 | 0.0 | 1.6 | 0.00 | 0.00 | 0.00 | 43 | 1034.3 |
| 20260503181444 | 10 | 346 | 0.0 | 0.0 | 0.00 | 0.00 | 0.00 | 43 | 1034.4 |
| 20260503180939 | 9 | 102 | 9.7 | 17.7 | 0.00 | 0.00 | 0.00 | 42 | 1034.6 |
| 20260503180438 | 10 | 354 | 3.2 | 3.2 | 0.00 | 0.00 | 0.00 | 42 | 1034.4 |
| 20260503175934 | 8 | 328 | 0.0 | 1.6 | 0.00 | 0.00 | 0.00 | 48 | 1034.5 |
| 20260503175432 | 8 | 292 | 0.0 | 1.6 | 0.00 | 0.00 | 0.00 | 47 | 1034.6 |
| 20260503174928 | 8 | 64 | 0.0 | 1.6 | 0.00 | 0.00 | 0.00 | 47 | 1034.5 |
| 20260503174426 | 8 | 21 | 1.6 | 3.2 | 0.00 | 0.00 | 0.00 | 48 | 1034.3 |
| 20260503173926 | 9 | 292 | 0.0 | 1.6 | 0.00 | 0.00 | 0.00 | 46 | 1034.1 |
| 20260503173423 | 10 | 289 | 1.6 | 3.2 | 0.00 | 0.00 | 0.00 | 44 | 1034.2 |
| 20260503172920 | 9 | 293 | 3.2 | 4.8 | 0.00 | 0.00 | 0.00 | 42 | 1034.2 |
| 20260503172417 | 9 | 328 | 1.6 | 1.6 | 0.00 | 0.00 | 0.00 | 43 | 1034.2 |
| 20260503171913 | 10 | 195 | 1.6 | 1.6 | 0.00 | 0.00 | 0.00 | 42 | 1034.1 |
| 20260503171410 | 10 | 305 | 0.0 | 1.6 | 0.00 | 0.00 | 0.00 | 44 | 1034.4 |
| 20260503170908 | 9 | 252 | 3.2 | 4.8 | 0.00 | 0.00 | 0.00 | 42 | 1034.3 |
| 20260503170403 | 9 | 283 | 1.6 | 3.2 | 0.00 | 0.00 | 0.00 | 42 | 1034.2 |